Regional Weather Roundup
Issued by NWS Glasgow, MT

Home | Current Version | Previous Version | Text Only | Print | Product List | Glossary On
Versions: 1 2 3 4 5 6 7 8 9 10 11 12 13 14 15 16 17 18 19 20 21 22 23 24 25 26 27 28 29 30 31 32 33 34 35 36 37 38 39 40 41 42 43 44 45 46 47 48 49 50
000
ASUS45 KGGW 090015
RWRGGW
HOURLY REGIONAL WEATHER ROUNDUP FOR NORTHEAST MONTANA
NATIONAL WEATHER SERVICE GLASGOW MONTANA
500 PM MST THU DEC 08 2016

NOTE: "FAIR" INDICATES FEW OR NO CLOUDS BELOW 12,000 FEET WITH NO
SIGNIFICANT WEATHER AND/OR OBSTRUCTIONS TO VISISBILITY.

NORTHEAST MONTANA


CITY           SKY/WX    TMP DP  RH WIND       PRES   REMARKS
GLASGOW        CLEAR      0  -6  76 VRB3      30.56F
6HR MIN TEMP:  -2; 6HR MAX TEMP:   6;

PLENTYWOOD       N/A     -4  -8  83 N5          N/A
WOLF POINT     CLEAR      1  -7  68 CALM      30.62S
JORDAN           N/A      0  -6  76 E8        30.50F
SIDNEY         CLOUDY    -7 -13  75 CALM      30.62S
GLENDIVE       CLEAR     -4  -8  83 N5        30.56F
MALTA            N/A     -1  -6  79 S3          N/A
SCOBEY           N/A     -7 -18  59 CALM      30.50S

FORT PECK REPORTS


CITY           SKY/WX    TMP DP  RH WIND       PRES   REMARKS
FORT PECK        N/A      3  -3  76 NW6         N/A
THE PINES        N/A      3  -4  72 CALM        N/A

SOUTHEAST MONTANA


CITY           SKY/WX    TMP DP  RH WIND       PRES   REMARKS
BILLINGS       PTCLDY     8  -2  63 E7        30.34F
MILES CITY     CLEAR      2  -7  66 NE7       30.51F
BAKER          CLOUDY    -6 -11  79 CALM      30.50F
LIVINGSTON     CLOUDY     2  -4  76 E12       30.20F WCI -15

CENTRAL MONTANA


CITY           SKY/WX    TMP DP  RH WIND       PRES   REMARKS
HAVRE          CLOUDY     0  -7  72 NE7       30.51F
LEWISTOWN      CLOUDY     0  -5  79 SE7       30.30F
GREAT FALLS    CLOUDY    -2  -7  79 SE3       30.36S
CUT BANK       CLOUDY    -2  -8  76 E7        30.34F
HELENA         CLOUDY     2  -6  69 NW8       30.27S
BUTTE          CLOUDY     5  -2  72 S15       30.04F WCI -13
BOZEMAN        CLOUDY     9   0  67 CALM      30.17F

WESTERN MONTANA


CITY           SKY/WX    TMP DP  RH WIND       PRES   REMARKS
MISSOULA       CLEAR     14   5  67 CALM      30.19S
KALISPELL      NOT AVBL

NORTH DAKOTA


CITY           SKY/WX    TMP DP  RH WIND       PRES   REMARKS
WILLISTON      CLOUDY    -5 -12  72 W9        30.62F
DICKINSON      CLEAR     -8 -12  83 NW9       30.52R
MINOT          CLOUDY     0  -7  72 W10       30.59S WCI -16
BISMARCK       PTCLDY     1  -5  75 NW10      30.63F WCI -15

SOUTHERN SASKATCHEWAN


CITY           SKY/WX    TMP DP  RH WIND       PRES   REMARKS
REGINA         PTCLDY    -6  -9  84 W5        30.59S
MOOSE JAW      LGT SNOW   0  -8  71 NW6       30.62R
ESTEVAN        FLURRIES  -8 -11  84 W12       30.59S WCI -27
SWIFT CURRENT  FLURRIES  -6  -9  84 W5        30.51F




USA.gov is the U.S. government's official web portal to all federal, state and local government web resources and services.